Regional Weather Roundup
Issued by NWS

Home | Current Version | Previous Version | Graphics & Text | Print | Product List | Glossary On
Versions: 1 2 3 4 5 6 7 8 9 10 11 12 13 14 15 16 17 18 19 20 21 22 23 24 25 26 27 28 29 30 31 32 33 34 35 36 37 38 39 40 41 42 43 44 45 46 47 48 49 50
000
ASUS43 KDMX 261408
RWRIA

WEATHER ROUNDUP FOR IOWA
NATIONAL WEATHER SERVICE DES MOINES IA
900 AM CDT THU MAY 26 2016

NOTE: "FAIR" INDICATES FEW OR NO CLOUDS BELOW 12,000 FEET WITH NO
SIGNIFICANT WEATHER AND/OR OBSTRUCTIONS TO VISIBILITY.

* - THESE STATIONS ARE NOT NWS STATIONS...THUS NOT UNDER NWS
QUALITY CONTROL.  THEY ALSO DO NOT REPORT WEATHER SUCH
AS PRECIPITATION OR FOG.

IAZ001>003-012>014-020>022-031>034-043>046-261500-
   NORTHWEST IOWA

CITY           SKY/WX    TMP DP  RH WIND       PRES   REMARKS
CARROLL *      SUNNY     66  61  82 SW7       29.89S
CHEROKEE *     SUNNY     64  61  88 SW8       29.90S
DENISON *      SUNNY     64  59  82 CALM      29.88F
LE MARS *      SUNNY     66  59  77 CALM      29.89F
ORANGE CITY *  SUNNY     63  57  82 CALM      29.89F
SHELDON *      SUNNY     66  52  59 W5        29.88S
SIOUX CITY     SUNNY     67  60  78 W5        29.89F
SPENCER        SUNNY     65  58  78 SW9       29.89R
STORM LAKE *   SUNNY     64  59  82 SW12      29.91R
$$

IAZ055>058-069>071-079>083-090>094-261500-
   SOUTHWEST IOWA

CITY           SKY/WX    TMP DP  RH WIND       PRES   REMARKS
ATLANTIC *     SUNNY     68  63  83 CALM      29.88F
AUDUBON *      SUNNY     66  61  82 CALM      29.90S
CLARINDA *       N/A     70  63  78 MISG      29.88F
COUNCIL BLFS * SUNNY     70  59  68 SE3       29.88S
CRESTON *      SUNNY     70  63  78 SE9       29.90S
HARLAN  *      SUNNY     66  61  82 VRB5      29.92S
LAMONI         CLOUDY    67  64  90 E3        29.88F
RED OAK *      SUNNY     68  64  88 N5        29.88S
SHENANDOAH *   SUNNY     72  64  78 CALM      29.87F
$$

IAZ047>049-059>061-072>074-084-261500-
   CENTRAL IOWA

CITY           SKY/WX    TMP DP  RH WIND       PRES   REMARKS
AMES           SUNNY     66  60  81 S10       29.89R
ANKENY *       SUNNY     68  63  83 S6        29.88S
BOONE *        SUNNY     66  61  82 S10       29.88R
CHARITON *     SUNNY     70  63  78 SE8       29.89S
DES MOINES     MOSUNNY   68  60  75 E6        29.89R
GRINNELL*      CLOUDY    64  59  82 SE5       29.91S
KNOXVILLE *    SUNNY     66  61  82 E7        29.89R
NEWTON *       SUNNY     64  61  88 S8        29.90R
PERRY *          N/A     66  63  88 SE6       29.89S
$$

IAZ004>006-015-016-023>025-035-036-261500-
   NORTH CENTRAL IOWA

CITY           SKY/WX    TMP DP  RH WIND       PRES   REMARKS
ALGONA *       SUNNY     66  61  82 SW15      29.89R
CLARION *      SUNNY     64  61  88 SW8       29.88R
ESTHERVILLE    SUNNY     64  59  83 SW14      29.88R
FORT DODGE *   SUNNY     64  57  77 SW7       29.89R
MASON CITY     SUNNY     65  60  84 SW6       29.86F
FOREST CITY *  SUNNY     63  61  94 W5        29.87R
WEBSTER CITY * SUNNY     66  61  82 SW7       29.86R
IOWA FALLS *     N/A     70  61  73 S5        29.89R
$$

IAZ007>011-017>019-026>030-037>042-050>054-066-261500-
   NORTHEAST IOWA

CITY           SKY/WX    TMP DP  RH WIND       PRES   REMARKS
CEDAR RAPIDS   PTSUNNY   66  60  81 SE3       29.88F
CHARLES CITY * SUNNY     64  61  88 NW5       29.86S
CLINTON *      MOSUNNY   66  59  78 CALM      29.90F
DECORAH *      MOSUNNY   63  61  94 VRB3      29.85R
DUBUQUE        SUNNY     67  58  72 CALM      29.89R
MONTICELLO *   SUNNY     68  59  73 VRB5      29.88R
OELWEIN *      SUNNY     64  61  88 SE10      29.86S
WATERLOO       CLOUDY    65  59  81 S12       29.85S
$$

IAZ064-065-067-068-078-261500-
   EAST CENTRAL IOWA

CITY           SKY/WX    TMP DP  RH WIND       PRES   REMARKS
DAVENPORT      CLOUDY    65  61  87 CALM      29.89F
IOWA CITY      CLOUDY    69  59  70 SE6       29.91R
MT. PLEASANT * CLOUDY    73  66  78 E10       29.90S
MUSCATINE *    SUNNY     73  59  60 CALM      29.90R
QUAD CITIES    CLOUDY    70  61  73 SE5       29.87F
$$

IAZ062-063-075>077-085>089-095>099-261500-
   SOUTHEAST IOWA

CITY           SKY/WX    TMP DP  RH WIND       PRES   REMARKS
BURLINGTON     CLOUDY    70  65  84 S8        29.91R
FAIRFIELD *      N/A    N/A N/A N/A MISG        N/A
FORT MADISON * SUNNY     72  66  83 SE6       29.93R
KEOKUK *       SUNNY     72  66  83 CALM      29.92R
OSKALOOSA *      N/A     64  59  82 E9        29.91R
OTTUMWA        CLOUDY    65  59  81 E8        29.90R
WASHINGTON *   SUNNY     68  68 100 E6        29.92R
$$

ABBREVIATIONS USED IN REMARKS
   TC - TEMPERATURES IN CELSIUS
  WCI - WIND CHILL INDEX
   HX - HEAT INDEX
  VSB - VISIBILITY
$$





USA.gov is the U.S. government's official web portal to all federal, state and local government web resources and services.